,,Stat6,,Stat2,,Stat8,,Stat9,,Stat10,,Wind1,,Wind1,
time,status,PA1M_AVG,status,PR1M_SUM,status,RH1M_AVG,status,SR1M_AVG,status,TA1M_AVG,status,W1dAve1m,status,W1sAve1m,
2004-03-05, 00:00:00,VALID,918.139,VALID,0,VALID,97.8195,VALID,-0.0849042,VALID,19.4551,VALID,16,VALID,0.659766,
2004-03-05, 00:01:00,VALID,918.152,VALID,0,VALID,97.8118,VALID,-0.101885,VALID,19.4265,VALID,16,VALID,0.510861,
2004-03-05, 00:02:00,VALID,918.167,VALID,0,VALID,98.0293,VALID,-0.101885,VALID,19.4396,VALID,16,VALID,0.260603,
2004-03-05, 00:03:00,VALID,918.186,VALID,0,VALID,98.1374,VALID,-0.101885,VALID,19.4593,VALID,16,VALID,0.205729,
2004-03-05, 00:04:00,VALID,918.182,VALID,0,VALID,98.248,VALID,-0.0849042,VALID,19.4717,VALID,15,VALID,0.693359,
2004-03-05, 00:05:00,VALID,918.194,VALID,0,VALID,98.3141,VALID,-0.0849042,VALID,19.4747,VALID,15,VALID,0.800327,
2004-03-05, 00:06:00,VALID,918.206,VALID,0,VALID,98.1157,VALID,-0.0509425,VALID,19.4553,VALID,9,VALID,1.00236,
2004-03-05, 00:07:00,VALID,918.188,VALID,0,VALID,98.3891,VALID,-0.0509425,VALID,19.4521,VALID,4,VALID,0.952939,
2004-03-05, 00:08:00,VALID,918.173,VALID,0,VALID,98.6867,VALID,-0.0849042,VALID,19.4712,VALID,358,VALID,0.710175,
2004-03-05, 00:09:00,VALID,918.16,VALID,0,VALID,98.8812,VALID,-0.0509425,VALID,19.5067,VALID,357,VALID,0.694425,
2004-03-05, 00:10:00,VALID,918.13,VALID,0,VALID,98.997,VALID,-0.0849042,VALID,19.5557,VALID,3,VALID,0.592862,
2004-03-05, 00:11:00,VALID,918.089,VALID,0,VALID,98.7999,VALID,-0.0849042,VALID,19.5589,VALID,11,VALID,0.225347,
2004-03-05, 00:12:00,VALID,918.048,VALID,0,VALID,98.7058,VALID,-0.101885,VALID,19.5519,VALID,11,VALID,0.247159,
2004-03-05, 00:13:00,VALID,918.015,VALID,0,VALID,98.6854,VALID,-0.101885,VALID,19.5815,VALID,11,VALID,0.336509,
2004-03-05, 00:14:00,VALID,917.996,VALID,0,VALID,98.4387,VALID,-0.0679233,VALID,19.5656,VALID,4,VALID,0.598189,
2004-03-05, 00:15:00,VALID,917.965,VALID,0,VALID,98.103,VALID,0,VALID,19.5323,VALID,359,VALID,0.947599,
2004-03-05, 00:16:00,VALID,917.944,VALID,0,VALID,97.7978,VALID,0.0169808,VALID,19.5122,VALID,3,VALID,1.15825,
2004-03-05, 00:17:00,VALID,917.919,VALID,0,VALID,97.4888,VALID,0,VALID,19.5184,VALID,4,VALID,0.989281,
2004-03-05, 00:18:00,VALID,917.901,VALID,0,VALID,97.1023,VALID,0.0169808,VALID,19.541,VALID,4,VALID,0.717478,
2004-03-05, 00:19:00,VALID,917.886,VALID,0,VALID,96.7399,VALID,0.0169808,VALID,19.5475,VALID,4,VALID,0.675347,
2004-03-05, 00:20:00,VALID,917.878,VALID,0,VALID,96.5339,VALID,-0.0169808,VALID,19.5666,VALID,4,VALID,0.771205,
2004-03-05, 00:21:00,VALID,917.862,VALID,0,VALID,96.633,VALID,0,VALID,19.6155,VALID,4,VALID,0.527158,
2004-03-05, 00:22:00,VALID,917.852,VALID,0,VALID,96.4194,VALID,0.0509425,VALID,19.5962,VALID,4,VALID,0.592076,
2004-03-05, 00:23:01,VALID,917.854,VALID,0,VALID,96.277,VALID,-0.0169808,VALID,19.5639,VALID,4,VALID,0.472929,
2004-03-05, 00:24:00,VALID,917.856,VALID,0,VALID,96.0379,VALID,0,VALID,19.5311,VALID,4,VALID,0.465353,
2004-03-05, 00:25:00,VALID,917.863,VALID,0,VALID,95.7353,VALID,0.0169808,VALID,19.4995,VALID,4,VALID,0.418423,
2004-03-05, 00:26:00,VALID,917.871,VALID,0,VALID,95.528,VALID,-0.0339617,VALID,19.4389,VALID,4,VALID,0.454649,
2004-03-05, 00:27:00,VALID,917.856,VALID,0,VALID,95.6781,VALID,0,VALID,19.3644,VALID,4,VALID,0.31436,
2004-03-05, 00:28:00,VALID,917.834,VALID,0,VALID,95.9782,VALID,0,VALID,19.3026,VALID,4,VALID,0.299107,
2004-03-05, 00:29:01,VALID,917.803,VALID,0,VALID,96.3139,VALID,0,VALID,19.2603,VALID,4,VALID,0.235305,
2004-03-05, 00:30:01,VALID,917.79,VALID,0,VALID,96.5377,VALID,0,VALID,19.2571,VALID,4,VALID,0.159412,
2004-03-05, 00:31:01,VALID,917.77,VALID,0,VALID,96.6547,VALID,0.0169808,VALID,19.2474,VALID,4,VALID,0.196265,
2004-03-05, 00:32:01,VALID,917.753,VALID,0,VALID,96.6381,VALID,0,VALID,19.241,VALID,4,VALID,0.21766,
2004-03-05, 00:33:00,VALID,917.746,VALID,0,VALID,96.7081,VALID,0,VALID,19.2216,VALID,4,VALID,0.20277,
2004-03-05, 00:34:01,VALID,917.743,VALID,0,VALID,96.7132,VALID,-0.0169808,VALID,19.2216,VALID,4,VALID,0.408203,
2004-03-05, 00:35:01,VALID,917.74,VALID,0,VALID,96.5949,VALID,0,VALID,19.2092,VALID,4,VALID,0.505716,
2004-03-05, 00:36:00,VALID,917.745,VALID,0,VALID,96.4957,VALID,0,VALID,19.1928,VALID,356,VALID,0.441311,
2004-03-05, 00:37:00,VALID,917.727,VALID,0,VALID,96.5809,VALID,0.0169808,VALID,19.2092,VALID,353,VALID,0.506747,
2004-03-05, 00:38:01,VALID,917.702,VALID,0,VALID,96.3876,VALID,0.0169808,VALID,19.2084,VALID,326,VALID,0.723028,
2004-03-05, 00:39:00,VALID,917.687,VALID,0,VALID,96.9497,VALID,0.0169808,VALID,19.3152,VALID,305,VALID,0.296165,
2004-03-05, 00:40:00,VALID,917.668,VALID,0,VALID,97.4303,VALID,0,VALID,19.4052,VALID,305,VALID,0,
2004-03-05, 00:41:00,VALID,917.677,VALID,0,VALID,96.8365,VALID,0.0169808,VALID,19.3828,VALID,305,VALID,0.052782,
2004-03-05, 00:42:01,VALID,917.69,VALID,0,VALID,96.881,VALID,0.0169808,VALID,19.3766,VALID,305,VALID,0.388086,
2004-03-05, 00:43:00,VALID,917.692,VALID,0,VALID,97.1633,VALID,0.0339617,VALID,19.4412,VALID,305,VALID,0.0543155,
2004-03-05, 00:44:00,VALID,917.71,VALID,0,VALID,96.9522,VALID,0,VALID,19.4576,VALID,333,VALID,0.48165,
2004-03-05, 00:45:00,VALID,917.722,VALID,0,VALID,96.4538,VALID,-0.0339617,VALID,19.3939,VALID,343,VALID,0.617759,
2004-03-05, 00:46:01,VALID,917.728,VALID,0,VALID,96.764,VALID,-0.0849042,VALID,19.3751,VALID,1,VALID,0.865184,
2004-03-05, 00:47:00,VALID,917.71,VALID,0,VALID,96.4118,VALID,-0.0849042,VALID,19.3299,VALID,358,VALID,0.824124,
2004-03-05, 00:48:00,VALID,917.697,VALID,0,VALID,96.0189,VALID,-0.101885,VALID,19.2844,VALID,349,VALID,0.884859,
2004-03-05, 00:49:00,VALID,917.682,VALID,0,VALID,95.5598,VALID,-0.101885,VALID,19.2851,VALID,337,VALID,0.741097,
2004-03-05, 00:50:00,VALID,917.653,VALID,0,VALID,95.4772,VALID,-0.0849042,VALID,19.3112,VALID,344,VALID,0.495414,
2004-03-05, 00:51:00,VALID,917.625,VALID,0,VALID,95.4543,VALID,-0.0849042,VALID,19.3331,VALID,302,VALID,0.446135,
2004-03-05, 00:52:00,VALID,917.597,VALID,0,VALID,95.3157,VALID,-0.0849042,VALID,19.3753,VALID,294,VALID,0.1875,
2004-03-05, 00:53:01,VALID,917.571,VALID,0,VALID,95.1542,VALID,-0.101885,VALID,19.3656,VALID,295,VALID,0.028343,
2004-03-05, 00:54:01,VALID,917.547,VALID,0,VALID,95.0919,VALID,-0.101885,VALID,19.3589,VALID,295,VALID,0,
2004-03-05, 00:55:00,VALID,917.548,VALID,0,VALID,95.1275,VALID,-0.101885,VALID,19.3693,VALID,295,VALID,0.00117188,
2004-03-05, 00:56:00,VALID,917.533,VALID,0,VALID,95.2979,VALID,-0.101885,VALID,19.3691,VALID,295,VALID,0.00190549,
2004-03-05, 00:57:00,VALID,917.544,VALID,0,VALID,95.2839,VALID,-0.0849042,VALID,19.3755,VALID,319,VALID,0.271984,
2004-03-05, 00:58:00,VALID,917.538,VALID,0,VALID,96.015,VALID,-0.101885,VALID,19.4309,VALID,327,VALID,0.0870028,
2004-03-05, 00:59:01,VALID,917.519,VALID,0,VALID,96.7564,VALID,-0.118866,VALID,19.4622,VALID,326,VALID,0.280571,
2004-03-05, 01:00:01,VALID,917.495,VALID,0,VALID,97.2142,VALID,-0.0339617,VALID,19.5104,VALID,326,VALID,0.398819,
2004-03-05, 01:01:00,VALID,917.464,VALID,0,VALID,97.5244,VALID,0,VALID,19.5097,VALID,321,VALID,0.326172,
2004-03-05, 01:02:00,VALID,917.458,VALID,0,VALID,97.8017,VALID,-0.0169808,VALID,19.5129,VALID,319,VALID,0.308308,
2004-03-05, 01:03:00,VALID,917.435,VALID,0,VALID,98.0013,VALID,0,VALID,19.497,VALID,319,VALID,0.215234,
2004-03-05, 01:04:00,VALID,917.423,VALID,0,VALID,97.9835,VALID,0,VALID,19.4811,VALID,319,VALID,0.0793139,
2004-03-05, 01:05:00,VALID,917.411,VALID,0,VALID,97.6414,VALID,0,VALID,19.4195,VALID,319,VALID,0.0690407,
2004-03-05, 01:06:00,VALID,917.394,VALID,0,VALID,97.3528,VALID,0,VALID,19.3709,VALID,319,VALID,0,
2004-03-05, 01:07:00,VALID,917.395,VALID,0,VALID,97.2053,VALID,0,VALID,19.3326,VALID,319,VALID,0.0372456,
2004-03-05, 01:08:00,VALID,917.381,VALID,0,VALID,97.6236,VALID,0,VALID,19.3485,VALID,319,VALID,0.0877131,
2004-03-05, 01:09:01,VALID,917.373,VALID,0,VALID,97.9695,VALID,0,VALID,19.388,VALID,307,VALID,0.387074,
2004-03-05, 01:10:00,VALID,917.352,VALID,0,VALID,98.0344,VALID,0,VALID,19.3974,VALID,280,VALID,0.459302,
2004-03-05, 01:11:01,VALID,917.355,VALID,0,VALID,97.9682,VALID,0,VALID,19.3875,VALID,284,VALID,0.239397,
2004-03-05, 01:12:00,VALID,917.349,VALID,0,VALID,97.7927,VALID,-0.0169808,VALID,19.3483,VALID,284,VALID,0,
2004-03-05, 01:13:00,VALID,917.34,VALID,0,VALID,97.5066,VALID,0,VALID,19.3294,VALID,284,VALID,0,
2004-03-05, 01:14:01,VALID,917.317,VALID,0,VALID,97.5079,VALID,0,VALID,19.31,VALID,284,VALID,0.0614099,
2004-03-05, 01:15:00,VALID,917.294,VALID,0,VALID,97.3375,VALID,-0.0169808,VALID,19.2904,VALID,284,VALID,0.218932,
2004-03-05, 01:16:00,VALID,917.254,VALID,0,VALID,97.1748,VALID,0.0169808,VALID,19.2613,VALID,284,VALID,0,
2004-03-05, 01:17:00,VALID,917.21,VALID,0,VALID,97.1824,VALID,0,VALID,19.239,VALID,284,VALID,0,
2004-03-05, 01:18:00,VALID,917.16,VALID,0,VALID,97.3095,VALID,0,VALID,19.2228,VALID,241,VALID,0.257986,
2004-03-05, 01:19:01,VALID,917.126,VALID,0,VALID,97.0158,VALID,0,VALID,19.1905,VALID,104,VALID,0.224746,
2004-03-05, 01:20:00,VALID,917.09,VALID,0,VALID,96.8403,VALID,0,VALID,19.158,VALID,104,VALID,0.155887,
2004-03-05, 01:21:00,VALID,917.065,VALID,0,VALID,96.8975,VALID,0.0169808,VALID,19.158,VALID,104,VALID,0.104725,
2004-03-05, 01:22:01,VALID,917.054,VALID,0,VALID,96.8619,VALID,0,VALID,19.1711,VALID,104,VALID,0.000363372,
2004-03-05, 01:23:00,VALID,917.044,VALID,0,VALID,96.6508,VALID,-0.0169808,VALID,19.1647,VALID,70,VALID,0.221799,
2004-03-05, 01:24:01,VALID,917.035,VALID,0,VALID,96.5847,VALID,0,VALID,19.1843,VALID,20,VALID,0.36701,
2004-03-05, 01:25:00,VALID,917.037,VALID,0,VALID,96.4563,VALID,-0.0169808,VALID,19.2166,VALID,20,VALID,0.474964,
2004-03-05, 01:26:01,VALID,917.038,VALID,0,VALID,96.2554,VALID,0,VALID,19.2069,VALID,20,VALID,0.517756,
2004-03-05, 01:27:00,VALID,917.043,VALID,0,VALID,95.3932,VALID,0,VALID,19.1389,VALID,19,VALID,1.01972,
2004-03-05, 01:28:00,VALID,917.051,VALID,0,VALID,94.8693,VALID,-0.0169808,VALID,19.1195,VALID,22,VALID,1.08794,
2004-03-05, 01:29:01,VALID,917.046,VALID,0,VALID,94.423,VALID,0,VALID,19.1389,VALID,17,VALID,1.14993,
2004-03-05, 01:30:00,VALID,917.044,VALID,0,VALID,94.0288,VALID,0,VALID,19.1749,VALID,15,VALID,1.19885,
2004-03-05, 01:31:00,VALID,917.015,VALID,0,VALID,93.6308,VALID,-0.0339617,VALID,19.1905,VALID,15,VALID,1.30793,
2004-03-05, 01:32:00,VALID,917.007,VALID,0,VALID,93.3841,VALID,0,VALID,19.2258,VALID,18,VALID,1.16164,
2004-03-05, 01:33:01,VALID,917.005,VALID,0,VALID,93.1425,VALID,-0.0169808,VALID,19.2581,VALID,13,VALID,0.856318,
2004-03-05, 01:34:00,VALID,916.986,VALID,0,VALID,93.1145,VALID,-0.0169808,VALID,19.2876,VALID,13,VALID,0.761914,
2004-03-05, 01:35:00,VALID,916.969,VALID,0,VALID,92.9721,VALID,-0.0169808,VALID,19.3038,VALID,13,VALID,0.804497,
2004-03-05, 01:36:00,VALID,916.956,VALID,0,VALID,92.7635,VALID,0,VALID,19.3169,VALID,16,VALID,0.936592,
2004-03-05, 01:37:00,VALID,916.937,VALID,0,VALID,92.8437,VALID,0.0169808,VALID,19.3423,VALID,24,VALID,0.731658,
2004-03-05, 01:38:00,VALID,916.92,VALID,0,VALID,92.7725,VALID,0,VALID,19.3391,VALID,24,VALID,0.790698,
2004-03-05, 01:39:00,VALID,916.889,VALID,0,VALID,92.8716,VALID,-0.0169808,VALID,19.3261,VALID,25,VALID,0.598357,
2004-03-05, 01:40:00,VALID,916.862,VALID,0,VALID,92.9607,VALID,0,VALID,19.3361,VALID,27,VALID,0.509718,
2004-03-05, 01:41:00,VALID,916.833,VALID,0,VALID,92.9759,VALID,0,VALID,19.3328,VALID,27,VALID,0.376758,
2004-03-05, 01:42:00,VALID,916.812,VALID,0,VALID,93.0141,VALID,-0.0339617,VALID,19.3068,VALID,28,VALID,0.426953,
2004-03-05, 01:43:00,VALID,916.77,VALID,0,VALID,92.8831,VALID,0,VALID,19.2844,VALID,27,VALID,0.338605,
2004-03-05, 01:44:00,VALID,916.743,VALID,0,VALID,93.1946,VALID,-0.0169808,VALID,19.2683,VALID,66,VALID,0.598214,
2004-03-05, 01:45:00,VALID,916.72,VALID,0,VALID,93.5926,VALID,-0.0339617,VALID,19.223,VALID,102,VALID,0.770241,
2004-03-05, 01:46:00,VALID,916.7,VALID,0,VALID,94.0263,VALID,-0.0169808,VALID,19.1776,VALID,115,VALID,0.96946,
2004-03-05, 01:47:00,VALID,916.662,VALID,0,VALID,94.5514,VALID,0,VALID,19.1485,VALID,130,VALID,1.01767,
2004-03-05, 01:48:00,VALID,916.635,VALID,0,VALID,94.9978,VALID,-0.0339617,VALID,19.123,VALID,133,VALID,0.914807,
2004-03-05, 01:49:00,VALID,916.606,VALID,0,VALID,95.5484,VALID,0,VALID,19.107,VALID,145,VALID,1.09432,
2004-03-05, 01:50:00,VALID,916.574,VALID,0,VALID,96.0519,VALID,0,VALID,19.0904,VALID,135,VALID,1.0307,
2004-03-05, 01:51:01,VALID,916.547,VALID,0,VALID,96.4334,VALID,0,VALID,19.071,VALID,123,VALID,0.928285,
2004-03-05, 01:52:01,VALID,916.519,VALID,0,VALID,96.8543,VALID,0,VALID,19.0484,VALID,118,VALID,1.11483,
2004-03-05, 01:53:01,VALID,916.485,VALID,0,VALID,97.1926,VALID,0,VALID,19.0291,VALID,131,VALID,0.917468,
2004-03-05, 01:54:00,VALID,916.44,VALID,0,VALID,97.3858,VALID,-0.0509425,VALID,19.003,VALID,125,VALID,0.78487,
2004-03-05, 01:55:00,VALID,916.41,VALID,0,VALID,97.3553,VALID,0,VALID,18.9968,VALID,60,VALID,0.555804,
2004-03-05, 01:56:00,VALID,916.387,VALID,0,VALID,97.2447,VALID,0.0169808,VALID,18.958,VALID,95,VALID,0.774009,
2004-03-05, 01:57:01,VALID,916.368,VALID,0,VALID,97.3375,VALID,0.0169808,VALID,18.9484,VALID,91,VALID,0.585211,
2004-03-05, 01:58:00,VALID,916.355,VALID,0,VALID,97.3159,VALID,0.0169808,VALID,18.9384,VALID,86,VALID,0.585007,
2004-03-05, 01:59:00,VALID,916.349,VALID,0,VALID,97.2917,VALID,0,VALID,18.9417,VALID,97,VALID,0.687891,
2004-03-05, 02:00:01,VALID,916.322,VALID,0,VALID,97.2256,VALID,-0.0679233,VALID,18.9195,VALID,121,VALID,0.887463,
2004-03-05, 02:01:01,VALID,916.312,VALID,0,VALID,97.3108,VALID,-0.0849042,VALID,18.9205,VALID,130,VALID,0.809896,
2004-03-05, 02:02:01,VALID,916.287,VALID,0,VALID,97.4316,VALID,-0.0679233,VALID,18.9232,VALID,131,VALID,0.986793,
2004-03-05, 02:03:00,VALID,916.273,VALID,0,VALID,97.5028,VALID,-0.101885,VALID,18.9302,VALID,123,VALID,0.936719,
2004-03-05, 02:04:01,VALID,916.26,VALID,0,VALID,97.5893,VALID,-0.0849042,VALID,18.9332,VALID,121,VALID,1.0419,
2004-03-05, 02:05:00,VALID,916.241,VALID,0,VALID,97.6313,VALID,-0.101885,VALID,18.9433,VALID,114,VALID,0.795573,
2004-03-05, 02:06:01,VALID,916.224,VALID,0,VALID,97.6719,VALID,-0.0679233,VALID,18.9396,VALID,111,VALID,0.761083,
2004-03-05, 02:07:01,VALID,916.219,VALID,0,VALID,97.7088,VALID,-0.101885,VALID,18.9369,VALID,95,VALID,0.584032,
2004-03-05, 02:08:00,VALID,916.206,VALID,0,VALID,97.7915,VALID,-0.101885,VALID,18.9332,VALID,104,VALID,0.659108,
2004-03-05, 02:09:00,VALID,916.185,VALID,0,VALID,97.7927,VALID,-0.0679233,VALID,18.9302,VALID,105,VALID,0.333031,
2004-03-05, 02:10:01,VALID,916.165,VALID,0,VALID,97.7775,VALID,-0.101885,VALID,18.9371,VALID,104,VALID,0.321875,
2004-03-05, 02:11:00,VALID,916.126,VALID,0,VALID,97.8423,VALID,-0.0679233,VALID,18.9302,VALID,115,VALID,0.760742,
2004-03-05, 02:12:01,VALID,916.102,VALID,0,VALID,98.0115,VALID,-0.101885,VALID,18.9431,VALID,125,VALID,1.02865,
2004-03-05, 02:13:01,VALID,916.078,VALID,0,VALID,98.1221,VALID,-0.101885,VALID,18.9495,VALID,128,VALID,1.08956,
2004-03-05, 02:14:01,VALID,916.052,VALID,0,VALID,98.1768,VALID,-0.0509425,VALID,18.9595,VALID,128,VALID,1.09375,
2004-03-05, 02:15:01,VALID,916.033,VALID,0,VALID,98.2531,VALID,-0.0169808,VALID,18.9647,VALID,129,VALID,1.04581,
2004-03-05, 02:16:00,VALID,916.004,VALID,0,VALID,98.3128,VALID,0,VALID,18.967,VALID,142,VALID,0.713956,
2004-03-05, 02:17:01,VALID,915.981,VALID,0,VALID,98.3294,VALID,0.0509425,VALID,18.9903,VALID,132,VALID,0.811756,
2004-03-05, 02:18:00,VALID,915.963,VALID,0,VALID,98.379,VALID,0.0339617,VALID,18.97,VALID,146,VALID,0.949314,
2004-03-05, 02:19:00,VALID,915.926,VALID,0,VALID,98.4553,VALID,0,VALID,18.9928,VALID,145,VALID,1.14414,
2004-03-05, 02:20:00,VALID,915.911,VALID,0,VALID,98.5239,VALID,0,VALID,19.006,VALID,158,VALID,1.22716,
2004-03-05, 02:21:01,VALID,915.897,VALID,0,VALID,98.5684,VALID,0,VALID,19.0191,VALID,154,VALID,1.09883,
2004-03-05, 02:22:01,VALID,915.898,VALID,0,VALID,98.6295,VALID,0.0339617,VALID,19.0157,VALID,157,VALID,1.01228,
2004-03-05, 02:23:01,VALID,915.885,VALID,0,VALID,98.6994,VALID,0.0169808,VALID,19.0316,VALID,150,VALID,0.854167,
2004-03-05, 02:24:01,VALID,915.856,VALID,0,VALID,98.7426,VALID,0.0169808,VALID,19.0313,VALID,143,VALID,0.84702,
2004-03-05, 02:25:00,VALID,915.841,VALID,0,VALID,98.7465,VALID,0.0679233,VALID,19.0385,VALID,118,VALID,0.470898,
2004-03-05, 02:26:01,VALID,915.814,VALID,0,VALID,98.7287,VALID,0.0169808,VALID,19.038,VALID,136,VALID,0.741406,
2004-03-05, 02:27:01,VALID,915.79,VALID,0,VALID,98.688,VALID,0.0339617,VALID,19.0447,VALID,146,VALID,0.892401,
2004-03-05, 02:28:01,VALID,915.772,VALID,0,VALID,98.6613,VALID,0,VALID,19.0549,VALID,146,VALID,0.69029,
2004-03-05, 02:29:01,VALID,915.758,VALID,0,VALID,98.6384,VALID,0,VALID,19.0547,VALID,156,VALID,0.833147,
2004-03-05, 02:30:01,VALID,915.74,VALID,0,VALID,98.5786,VALID,0.0169808,VALID,19.0519,VALID,159,VALID,0.920201,
2004-03-05, 02:31:01,VALID,915.722,VALID,0,VALID,98.4502,VALID,0,VALID,19.0348,VALID,152,VALID,0.866629,
2004-03-05, 02:32:01,VALID,915.714,VALID,0,VALID,98.2467,VALID,0.0169808,VALID,19.0417,VALID,152,VALID,0.857851,
2004-03-05, 02:33:01,VALID,915.7,VALID,0,VALID,98.0839,VALID,0.0339617,VALID,19.042,VALID,157,VALID,0.521484,
2004-03-05, 02:34:01,VALID,915.695,VALID,0,VALID,98.0216,VALID,0.0339617,VALID,19.0482,VALID,161,VALID,0.629492,
2004-03-05, 02:35:01,VALID,915.679,VALID,0,VALID,98.0267,VALID,0.0169808,VALID,19.0581,VALID,162,VALID,0.598238,
2004-03-05, 02:36:01,VALID,915.68,VALID,0,VALID,98.1017,VALID,0.0169808,VALID,19.071,VALID,147,VALID,0.603237,
2004-03-05, 02:37:01,VALID,915.677,VALID,0,VALID,98.056,VALID,0.0169808,VALID,19.0775,VALID,137,VALID,0.959077,
2004-03-05, 02:38:01,VALID,915.683,VALID,0,VALID,97.9263,VALID,0,VALID,19.0673,VALID,131,VALID,0.959484,
2004-03-05, 02:39:01,VALID,915.679,VALID,0,VALID,97.7686,VALID,0,VALID,19.071,VALID,125,VALID,0.816883,
2004-03-05, 02:40:01,VALID,915.678,VALID,0,VALID,97.5651,VALID,0,VALID,19.0678,VALID,114,VALID,0.680469,
2004-03-05, 02:41:01,VALID,915.662,VALID,0,VALID,97.5308,VALID,0,VALID,19.0646,VALID,96,VALID,0.680246,
2004-03-05, 02:42:01,VALID,915.649,VALID,0,VALID,97.4303,VALID,0.0169808,VALID,19.0644,VALID,67,VALID,0.735283,
2004-03-05, 02:43:01,VALID,915.635,VALID,0,VALID,97.3693,VALID,0,VALID,19.0648,VALID,63,VALID,1.02637,
2004-03-05, 02:44:01,VALID,915.635,VALID,0,VALID,97.3146,VALID,0.0169808,VALID,19.0415,VALID,55,VALID,1.23295,
2004-03-05, 02:45:01,VALID,915.613,VALID,0,VALID,97.1697,VALID,0,VALID,19.006,VALID,51,VALID,1.05804,
2004-03-05, 02:46:01,VALID,915.607,VALID,0,VALID,97.1417,VALID,0,VALID,18.9774,VALID,42,VALID,0.861328,
2004-03-05, 02:47:01,VALID,915.589,VALID,0,VALID,97.143,VALID,0,VALID,18.9357,VALID,41,VALID,0.635298,
2004-03-05, 02:48:01,VALID,915.562,VALID,0,VALID,97.3261,VALID,0,VALID,18.8965,VALID,43,VALID,0.661204,
2004-03-05, 02:49:01,VALID,915.547,VALID,0,VALID,97.5003,VALID,0,VALID,18.9002,VALID,60,VALID,0.674609,
2004-03-05, 02:50:01,VALID,915.526,VALID,0,VALID,97.6363,VALID,0,VALID,18.9032,VALID,77,VALID,0.814977,
2004-03-05, 02:51:01,VALID,915.507,VALID,0,VALID,97.6185,VALID,0.0169808,VALID,18.9061,VALID,91,VALID,0.690952,
2004-03-05, 02:52:01,VALID,915.5,VALID,0,VALID,97.6961,VALID,0,VALID,18.9161,VALID,124,VALID,0.772507,
2004-03-05, 02:53:01,VALID,915.484,VALID,0,VALID,97.7203,VALID,0,VALID,18.9191,VALID,125,VALID,0.728609,
2004-03-05, 02:54:01,VALID,915.484,VALID,0,VALID,97.7699,VALID,-0.0169808,VALID,18.9193,VALID,117,VALID,0.914608,
2004-03-05, 02:55:01,VALID,915.474,VALID,0,VALID,97.8983,VALID,0.0339617,VALID,18.9354,VALID,104,VALID,0.992882,
2004-03-05, 02:56:01,VALID,915.476,VALID,0,VALID,97.8118,VALID,0,VALID,18.9421,VALID,71,VALID,0.569336,
2004-03-05, 02:57:01,VALID,915.479,VALID,0,VALID,97.5397,VALID,0.0509425,VALID,18.9131,VALID,70,VALID,0.862909,
2004-03-05, 02:58:01,VALID,915.476,VALID,0,VALID,97.6503,VALID,0.0169808,VALID,18.8835,VALID,65,VALID,1.01632,
2004-03-05, 02:59:00,VALID,915.48,VALID,0,VALID,97.6898,VALID,0.0169808,VALID,18.8803,VALID,61,VALID,1.14735,
2004-03-05, 03:00:00,VALID,915.497,VALID,0,VALID,97.6541,VALID,0.0339617,VALID,18.8808,VALID,55,VALID,1.11192,
2004-03-05, 03:01:00,VALID,915.499,VALID,0,VALID,97.8156,VALID,0.0169808,VALID,18.8771,VALID,60,VALID,1.07266,
2004-03-05, 03:02:00,VALID,915.507,VALID,0,VALID,97.9479,VALID,0,VALID,18.8835,VALID,74,VALID,1.00949,
2004-03-05, 03:03:00,VALID,915.508,VALID,0,VALID,97.822,VALID,0.0339617,VALID,18.8965,VALID,73,VALID,0.754687,
2004-03-05, 03:04:00,VALID,915.527,VALID,0,VALID,97.6885,VALID,0.0169808,VALID,18.9034,VALID,73,VALID,0.987926,
2004-03-05, 03:05:00,VALID,915.533,VALID,0,VALID,97.5855,VALID,0.0169808,VALID,18.8962,VALID,76,VALID,0.95585,
2004-03-05, 03:06:00,VALID,915.551,VALID,0,VALID,97.5613,VALID,0.0339617,VALID,18.887,VALID,88,VALID,0.787305,
2004-03-05, 03:07:00,VALID,915.549,VALID,0,VALID,97.6147,VALID,0.0169808,VALID,18.887,VALID,106,VALID,1.04147,
2004-03-05, 03:08:00,VALID,915.564,VALID,0,VALID,97.6109,VALID,0.0339617,VALID,18.8771,VALID,116,VALID,1.36447,
2004-03-05, 03:09:00,VALID,915.559,VALID,0,VALID,97.6465,VALID,0.0169808,VALID,18.8967,VALID,122,VALID,1.22986,
2004-03-05, 03:10:00,VALID,915.552,VALID,0,VALID,97.7673,VALID,0.0169808,VALID,18.9163,VALID,126,VALID,1.20174,
2004-03-05, 03:11:00,VALID,915.543,VALID,0,VALID,98.0064,VALID,0,VALID,18.9191,VALID,139,VALID,1.23647,
2004-03-05, 03:12:00,VALID,915.532,VALID,0,VALID,98.2836,VALID,0.0339617,VALID,18.9287,VALID,136,VALID,1.19277,
2004-03-05, 03:13:00,VALID,915.522,VALID,0,VALID,98.5125,VALID,0.0169808,VALID,18.9384,VALID,137,VALID,1.49474,
2004-03-05, 03:14:00,VALID,915.516,VALID,0,VALID,98.7134,VALID,0.0169808,VALID,18.9421,VALID,134,VALID,1.34063,
2004-03-05, 03:15:00,VALID,915.517,VALID,0,VALID,98.8673,VALID,-0.0339617,VALID,18.9364,VALID,134,VALID,1.35647,
2004-03-05, 03:16:00,VALID,915.504,VALID,0,VALID,98.955,VALID,-0.0679233,VALID,18.9269,VALID,133,VALID,1.54427,
2004-03-05, 03:17:00,VALID,915.49,VALID,0,VALID,99.0694,VALID,-0.0849042,VALID,18.924,VALID,131,VALID,1.04865,
2004-03-05, 03:18:00,VALID,915.481,VALID,0,VALID,99.175,VALID,-0.101885,VALID,18.9242,VALID,140,VALID,1.19903,
2004-03-05, 03:19:00,VALID,915.477,VALID,0,VALID,99.3021,VALID,-0.101885,VALID,18.9078,VALID,136,VALID,1.29345,
2004-03-05, 03:20:00,VALID,915.472,VALID,0,VALID,99.4331,VALID,-0.0849042,VALID,18.8951,VALID,132,VALID,1.34446,
2004-03-05, 03:21:00,VALID,915.462,VALID,0,VALID,99.5361,VALID,-0.0509425,VALID,18.8787,VALID,129,VALID,1.30593,
2004-03-05, 03:22:00,VALID,915.456,VALID,0,VALID,99.5895,VALID,-0.0849042,VALID,18.8654,VALID,120,VALID,1.34952,
2004-03-05, 03:23:00,VALID,915.451,VALID,0,VALID,99.6531,VALID,-0.0679233,VALID,18.843,VALID,129,VALID,1.26749,
2004-03-05, 03:24:00,VALID,915.43,VALID,0,VALID,99.6747,VALID,-0.101885,VALID,18.8301,VALID,128,VALID,1.23397,
2004-03-05, 03:25:00,VALID,915.406,VALID,0,VALID,99.5781,VALID,-0.101885,VALID,18.8372,VALID,128,VALID,1.57404,
2004-03-05, 03:26:00,VALID,915.392,VALID,0,VALID,99.5145,VALID,-0.0679233,VALID,18.8239,VALID,129,VALID,1.26326,
2004-03-05, 03:27:00,VALID,915.367,VALID,0,VALID,99.4509,VALID,-0.101885,VALID,18.8169,VALID,125,VALID,1.15104,
2004-03-05, 03:28:00,VALID,915.346,VALID,0,VALID,99.2373,VALID,-0.101885,VALID,18.8338,VALID,126,VALID,1.62074,
2004-03-05, 03:29:00,VALID,915.336,VALID,0,VALID,99.0186,VALID,-0.0679233,VALID,18.8239,VALID,112,VALID,1.07504,
2004-03-05, 03:30:00,VALID,915.329,VALID,0,VALID,98.7693,VALID,-0.0339617,VALID,18.8395,VALID,119,VALID,1.35283,
2004-03-05, 03:31:00,VALID,915.334,VALID,0,VALID,98.5722,VALID,0.0339617,VALID,18.845,VALID,127,VALID,1.50373,
2004-03-05, 03:32:00,VALID,915.326,VALID,0,VALID,98.3993,VALID,0.0169808,VALID,18.8706,VALID,127,VALID,1.14025,
2004-03-05, 03:33:00,VALID,915.338,VALID,0,VALID,98.2925,VALID,0.0509425,VALID,18.8773,VALID,125,VALID,1.05505,
2004-03-05, 03:34:00,VALID,915.337,VALID,0,VALID,98.1844,VALID,0.0169808,VALID,18.8838,VALID,131,VALID,1.1783,
2004-03-05, 03:35:00,VALID,915.346,VALID,0,VALID,97.9377,VALID,0,VALID,18.8776,VALID,127,VALID,1.1783,
2004-03-05, 03:36:00,VALID,915.365,VALID,0,VALID,97.6592,VALID,0.0169808,VALID,18.8669,VALID,133,VALID,1.06585,
2004-03-05, 03:37:00,VALID,915.364,VALID,0,VALID,97.4558,VALID,0.0169808,VALID,18.8902,VALID,125,VALID,1.22561,